Location: Unspecified
(0.0000°N, 0.0000°E)
Time: 16:18:35
(UTC+00:00)

A-11 Canister half - Pass Details

Date: 22 November 2019
Orbit: 1515 x 1685 km, 47.2° (Epoch: 12 December)

Event Time Altitude Azimuth Distance (km) Brightness Sun altitude
Rises 14:35:35 0° 233° (SW) 4,734 12.3 43.9°
Reaches altitude 10° 14:38:45 10° 238° (WSW) 3,770 12.2 43.2°
Maximum altitude 14:47:53 49° 310° (NW) 1,996 10.4 41.2°
Drops below altitude 10° 14:57:22 10° 23° (NNE) 3,889 10.9 39.1°
Sets 15:00:43 0° 28° (NNE) 4,892 11.3 38.3°
